KRKS Airport (Southwest Wyoming Rgnl) Information

FAA: RKS - ICAO: KRKS

KRKS Airport Location

State Wyoming
County Sweetwater
City Rock Springs
KRKS Airport is 7 miles east of Rock Springs, WY.
Latitude 41-35-39.2000N
Longitude 109-03-54.7000W
Elevation 6,764ft

KRKS Airport METARs

METAR KRKS 280154Z AUTO 26021G32KT 10SM BKN060 04/M01 A3023 RMK AO2 PK WND 25034/0143 SLP239 T00391011
Altimeter 30.23"
Temperature 3.9°C (39.0°F)
Wind 260° at 21KT with gusts to 32KT
Clouds broken at 6,000ft
Visibility 10.0mi
Time observed: 2021-10-28T01:54:00Z

KRKS Airport Details

Status Operational
Activation July 1942
Ownership Public
Usage Public
Chart SALT LAKE CITY
ATC on-site No
Beacon schedule sunset-sunrise
Beacon color clear green

KRKS Airport Contacts

Owner ROCK SPRINGS/SWEETWATER COUNTY
Owner address BOX 1987, ROCK SPRINGS, WY 82902-1987
Owner phone 307-352-6880
Manager WILDLIFE MANAGEMENT COORDINATOR
Manager address PO BOX 67, JACKSON, WY 83001
Manager phone 307-733-2321

KRKS Airport (Southwest Wyoming Rgnl) Radio Frequencies

KRKS (Airport) Radio Frequencies

UNICOM 122.8
Common traffic advisory frequency (CTAF) 122.8